Location: Leedale
(52.5833°N, 114.4833°W)
Time: 04:16:21
(UTC+00:00)

BlueWalker 3 - Pass Details

Date: 07 August 2024
Orbit: 476 x 487 km, 53.2° (Epoch: 09 September)

Event Time Altitude Azimuth Distance (km) Brightness Sun altitude
Exits shadow 11:10:46 10° 220° (SW) 1,666 3.9 -8.0°
Maximum altitude 11:14:17 40° 150° (SSE) 739 2.7 -7.6°
Drops below altitude 10° 11:17:54 10° 80° (E) 1,696 5.7 -7.2°
Sets 11:20:09 0° 73° (ENE) 2,581 7.1 -6.9°
